Domain,Timestamp,Username,Page_title,Edit_summary,Revision_id
bn.wikipedia.org,2019-09-11 06:37:25,Nokib Sarkar,খ্রিস্টপূর্ব ১৩৯০-এর দশক,#nokibBot,3663903
bn.wikipedia.org,2019-09-11 06:36:13,Nokib Sarkar,খ্রিস্টপূর্ব ১৪০০-এর দশক,#nokibBot,3663900
bn.wikipedia.org,2019-09-11 05:22:53,Nokib Sarkar,১৭১০-এর দশক,#nokibBot,3663784
bn.wikipedia.org,2019-09-11 05:22:44,Nokib Sarkar,১৭০০-এর দশক,#nokibBot,3663783
bn.wikipedia.org,2019-09-11 05:22:33,Nokib Sarkar,১৬৯০-এর দশক,#nokibBot,3663782
bn.wikipedia.org,2019-09-11 05:22:23,Nokib Sarkar,১৬৮০-এর দশক,#nokibBot,3663781
bn.wikipedia.org,2019-09-11 05:22:13,Nokib Sarkar,১৬৭০-এর দশক,#nokibBot,3663779
bn.wikipedia.org,2019-09-11 05:22:03,Nokib Sarkar,১৬৬০-এর দশক,#nokibBot,3663778
bn.wikipedia.org,2019-09-11 05:21:53,Nokib Sarkar,১৬৫০-এর দশক,#nokibBot,3663777
bn.wikipedia.org,2019-09-11 05:21:43,Nokib Sarkar,১৬৪০-এর দশক,#nokibBot,3663775
bn.wikipedia.org,2019-09-11 05:21:33,Nokib Sarkar,১৬৩০-এর দশক,#nokibBot,3663774
bn.wikipedia.org,2019-09-11 05:21:23,Nokib Sarkar,১৬২০-এর দশক,#nokibBot,3663773
bn.wikipedia.org,2019-09-11 05:21:13,Nokib Sarkar,১৬১০-এর দশক,#nokibBot,3663772
bn.wikipedia.org,2019-09-11 05:21:03,Nokib Sarkar,১৬০০-এর দশক,#nokibBot,3663771
bn.wikipedia.org,2019-09-11 05:20:53,Nokib Sarkar,১৫৯০-এর দশক,#nokibBot,3663770
bn.wikipedia.org,2019-09-11 05:20:43,Nokib Sarkar,১৫৮০-এর দশক,#nokibBot,3663769
bn.wikipedia.org,2019-09-11 05:20:33,Nokib Sarkar,১৫৭০-এর দশক,#nokibBot,3663768
bn.wikipedia.org,2019-09-11 05:20:23,Nokib Sarkar,১৫৬০-এর দশক,#nokibBot,3663767
bn.wikipedia.org,2019-09-11 05:20:13,Nokib Sarkar,১৫৫০-এর দশক,#nokibBot,3663766
bn.wikipedia.org,2019-09-11 05:20:03,Nokib Sarkar,১৫৪০-এর দশক,#nokibBot,3663765
bn.wikipedia.org,2019-09-11 05:19:53,Nokib Sarkar,১৫৩০-এর দশক,#nokibBot,3663764
bn.wikipedia.org,2019-09-11 05:19:43,Nokib Sarkar,১৫২০-এর দশক,#nokibBot,3663762
bn.wikipedia.org,2019-09-11 05:19:33,Nokib Sarkar,১৫১০-এর দশক,#nokibBot,3663761
bn.wikipedia.org,2019-09-11 05:19:23,Nokib Sarkar,১৫০০-এর দশক,#nokibBot,3663760
bn.wikipedia.org,2019-09-11 05:19:13,Nokib Sarkar,১৪৯০-এর দশক,#nokibBot,3663759
bn.wikipedia.org,2019-09-11 05:19:03,Nokib Sarkar,১৪৮০-এর দশক,#nokibBot,3663758
bn.wikipedia.org,2019-09-11 05:18:53,Nokib Sarkar,১৪৭০-এর দশক,#nokibBot,3663757
bn.wikipedia.org,2019-09-11 05:18:43,Nokib Sarkar,১৪৬০-এর দশক,#nokibBot,3663755
bn.wikipedia.org,2019-09-11 05:18:33,Nokib Sarkar,১৪৫০-এর দশক,#nokibBot,3663753
bn.wikipedia.org,2019-09-11 05:18:23,Nokib Sarkar,১৪৪০-এর দশক,#nokibBot,3663751
bn.wikipedia.org,2019-09-11 05:18:13,Nokib Sarkar,১৪৩০-এর দশক,#nokibBot,3663749
bn.wikipedia.org,2019-09-11 05:18:03,Nokib Sarkar,১৪২০-এর দশক,#nokibBot,3663748
bn.wikipedia.org,2019-09-11 05:17:53,Nokib Sarkar,১৪১০-এর দশক,#nokibBot,3663746
bn.wikipedia.org,2019-09-11 05:17:43,Nokib Sarkar,১৪০০-এর দশক,#nokibBot,3663744
bn.wikipedia.org,2019-09-11 05:17:33,Nokib Sarkar,১৩৯০-এর দশক,#nokibBot,3663743
bn.wikipedia.org,2019-09-11 05:17:23,Nokib Sarkar,১৩৮০-এর দশক,#nokibBot,3663741
bn.wikipedia.org,2019-09-11 05:17:13,Nokib Sarkar,১৩৭০-এর দশক,#nokibBot,3663739
bn.wikipedia.org,2019-09-11 05:17:03,Nokib Sarkar,১৩৬০-এর দশক,#nokibBot,3663738
bn.wikipedia.org,2019-09-11 05:16:53,Nokib Sarkar,১৩৫০-এর দশক,#nokibBot,3663737
bn.wikipedia.org,2019-09-11 05:16:43,Nokib Sarkar,১৩৪০-এর দশক,#nokibBot,3663736
bn.wikipedia.org,2019-09-11 05:16:33,Nokib Sarkar,১৩৩০-এর দশক,#nokibBot,3663735
bn.wikipedia.org,2019-09-11 05:16:23,Nokib Sarkar,১৩২০-এর দশক,#nokibBot,3663734
bn.wikipedia.org,2019-09-11 05:16:13,Nokib Sarkar,১৩১০-এর দশক,#nokibBot,3663733
bn.wikipedia.org,2019-09-11 05:16:03,Nokib Sarkar,১৩০০-এর দশক,#nokibBot,3663731
bn.wikipedia.org,2019-09-11 05:15:53,Nokib Sarkar,১২৯০-এর দশক,#nokibBot,3663730
bn.wikipedia.org,2019-09-11 05:15:43,Nokib Sarkar,১২৮০-এর দশক,#nokibBot,3663729
bn.wikipedia.org,2019-09-11 05:15:33,Nokib Sarkar,১২৭০-এর দশক,#nokibBot,3663728
bn.wikipedia.org,2019-09-11 05:15:23,Nokib Sarkar,১২৬০-এর দশক,#nokibBot,3663727
bn.wikipedia.org,2019-09-11 05:15:13,Nokib Sarkar,১২৫০-এর দশক,#nokibBot,3663726
bn.wikipedia.org,2019-09-11 05:15:03,Nokib Sarkar,১২৪০-এর দশক,#nokibBot,3663725
bn.wikipedia.org,2019-09-11 05:14:53,Nokib Sarkar,১২৩০-এর দশক,#nokibBot,3663724
bn.wikipedia.org,2019-09-11 05:14:43,Nokib Sarkar,১২২০-এর দশক,#nokibBot,3663721
bn.wikipedia.org,2019-09-11 05:14:33,Nokib Sarkar,১২১০-এর দশক,#nokibBot,3663718
bn.wikipedia.org,2019-09-11 05:14:23,Nokib Sarkar,১২০০-এর দশক,#nokibBot,3663717
bn.wikipedia.org,2019-09-11 05:14:13,Nokib Sarkar,১১৯০-এর দশক,#nokibBot,3663716
bn.wikipedia.org,2019-09-11 05:14:03,Nokib Sarkar,১১৮০-এর দশক,#nokibBot,3663715
bn.wikipedia.org,2019-09-11 05:13:53,Nokib Sarkar,১১৭০-এর দশক,#nokibBot,3663714
bn.wikipedia.org,2019-09-11 05:13:43,Nokib Sarkar,১১৬০-এর দশক,#nokibBot,3663713
bn.wikipedia.org,2019-09-11 05:13:33,Nokib Sarkar,১১৫০-এর দশক,#nokibBot,3663712
bn.wikipedia.org,2019-09-11 05:13:23,Nokib Sarkar,১১৪০-এর দশক,#nokibBot,3663709
bn.wikipedia.org,2019-09-11 05:13:13,Nokib Sarkar,১১৩০-এর দশক,#nokibBot,3663707
bn.wikipedia.org,2019-09-11 05:13:03,Nokib Sarkar,১১২০-এর দশক,#nokibBot,3663705
bn.wikipedia.org,2019-09-11 05:12:53,Nokib Sarkar,১১১০-এর দশক,#nokibBot,3663700
bn.wikipedia.org,2019-09-11 05:12:43,Nokib Sarkar,১১০০-এর দশক,#nokibBot,3663698
bn.wikipedia.org,2019-09-11 05:12:33,Nokib Sarkar,১০৯০-এর দশক,#nokibBot,3663697
bn.wikipedia.org,2019-09-11 05:12:23,Nokib Sarkar,১০৮০-এর দশক,#nokibBot,3663696
bn.wikipedia.org,2019-09-11 05:12:13,Nokib Sarkar,১০৭০-এর দশক,#nokibBot,3663695
bn.wikipedia.org,2019-09-11 05:12:03,Nokib Sarkar,১০৬০-এর দশক,#nokibBot,3663694
bn.wikipedia.org,2019-09-11 05:11:53,Nokib Sarkar,১০৫০-এর দশক,#nokibBot,3663693
bn.wikipedia.org,2019-09-11 05:11:43,Nokib Sarkar,১০৪০-এর দশক,#nokibBot,3663692
bn.wikipedia.org,2019-09-11 05:11:33,Nokib Sarkar,১০৩০-এর দশক,#nokibBot,3663690
bn.wikipedia.org,2019-09-11 05:11:23,Nokib Sarkar,১০২০-এর দশক,#nokibBot,3663689
bn.wikipedia.org,2019-09-11 05:11:13,Nokib Sarkar,১০১০-এর দশক,#nokibBot,3663687
bn.wikipedia.org,2019-09-11 05:11:03,Nokib Sarkar,১০০০-এর দশক,#nokibBot,3663686
bn.wikipedia.org,2019-09-11 05:10:53,Nokib Sarkar,৯৯০-এর দশক,#nokibBot,3663685
bn.wikipedia.org,2019-09-11 05:10:43,Nokib Sarkar,৯৮০-এর দশক,#nokibBot,3663683
bn.wikipedia.org,2019-09-11 05:10:33,Nokib Sarkar,৯৭০-এর দশক,#nokibBot,3663682
bn.wikipedia.org,2019-09-11 05:10:23,Nokib Sarkar,৯৬০-এর দশক,#nokibBot,3663681
bn.wikipedia.org,2019-09-11 05:10:13,Nokib Sarkar,৯৫০-এর দশক,#nokibBot,3663680
bn.wikipedia.org,2019-09-11 05:10:03,Nokib Sarkar,৯৪০-এর দশক,#nokibBot,3663679
bn.wikipedia.org,2019-09-11 05:09:53,Nokib Sarkar,৯৩০-এর দশক,#nokibBot,3663678
bn.wikipedia.org,2019-09-11 05:09:43,Nokib Sarkar,৯২০-এর দশক,#nokibBot,3663677
bn.wikipedia.org,2019-09-11 05:09:33,Nokib Sarkar,৯১০-এর দশক,#nokibBot,3663676
bn.wikipedia.org,2019-09-11 05:09:23,Nokib Sarkar,৯০০-এর দশক,#nokibBot,3663675
bn.wikipedia.org,2019-09-11 05:09:13,Nokib Sarkar,৮৯০-এর দশক,#nokibBot,3663674
bn.wikipedia.org,2019-09-11 05:09:03,Nokib Sarkar,৮৮০-এর দশক,#nokibBot,3663672
bn.wikipedia.org,2019-09-11 05:08:53,Nokib Sarkar,৮৭০-এর দশক,#nokibBot,3663670
bn.wikipedia.org,2019-09-11 05:08:43,Nokib Sarkar,৮৬০-এর দশক,#nokibBot,3663669
bn.wikipedia.org,2019-09-11 05:08:33,Nokib Sarkar,৮৫০-এর দশক,#nokibBot,3663667
bn.wikipedia.org,2019-09-11 05:08:23,Nokib Sarkar,৮৪০-এর দশক,#nokibBot,3663666
bn.wikipedia.org,2019-09-11 05:08:13,Nokib Sarkar,৮৩০-এর দশক,#nokibBot,3663664
bn.wikipedia.org,2019-09-11 05:08:03,Nokib Sarkar,৮২০-এর দশক,#nokibBot,3663663
bn.wikipedia.org,2019-09-11 05:07:53,Nokib Sarkar,৮১০-এর দশক,#nokibBot,3663661
bn.wikipedia.org,2019-09-11 05:07:43,Nokib Sarkar,৮০০-এর দশক,#nokibBot,3663660
bn.wikipedia.org,2019-09-11 05:07:33,Nokib Sarkar,৭৯০-এর দশক,#nokibBot,3663659
bn.wikipedia.org,2019-09-11 05:07:23,Nokib Sarkar,৭৮০-এর দশক,#nokibBot,3663658
bn.wikipedia.org,2019-09-11 05:07:13,Nokib Sarkar,৭৭০-এর দশক,#nokibBot,3663657
bn.wikipedia.org,2019-09-11 05:07:03,Nokib Sarkar,৭৬০-এর দশক,#nokibBot,3663656
bn.wikipedia.org,2019-09-11 05:06:53,Nokib Sarkar,৭৫০-এর দশক,#nokibBot,3663655
bn.wikipedia.org,2019-09-11 05:06:43,Nokib Sarkar,৭৪০-এর দশক,#nokibBot,3663654
bn.wikipedia.org,2019-09-11 05:06:33,Nokib Sarkar,৭৩০-এর দশক,#nokibBot,3663653
bn.wikipedia.org,2019-09-11 05:06:23,Nokib Sarkar,৭২০-এর দশক,#nokibBot,3663652
bn.wikipedia.org,2019-09-11 05:06:13,Nokib Sarkar,৭১০-এর দশক,#nokibBot,3663650
bn.wikipedia.org,2019-09-11 05:06:03,Nokib Sarkar,৭০০-এর দশক,#nokibBot,3663648
bn.wikipedia.org,2019-09-11 05:05:53,Nokib Sarkar,৬৯০-এর দশক,#nokibBot,3663647
bn.wikipedia.org,2019-09-11 05:05:43,Nokib Sarkar,৬৮০-এর দশক,#nokibBot,3663646
bn.wikipedia.org,2019-09-11 05:05:33,Nokib Sarkar,৬৭০-এর দশক,#nokibBot,3663645
bn.wikipedia.org,2019-09-11 05:05:23,Nokib Sarkar,৬৬০-এর দশক,#nokibBot,3663644
bn.wikipedia.org,2019-09-11 05:05:13,Nokib Sarkar,৬৫০-এর দশক,#nokibBot,3663642
bn.wikipedia.org,2019-09-11 05:05:03,Nokib Sarkar,৬৪০-এর দশক,#nokibBot,3663641
bn.wikipedia.org,2019-09-11 05:04:53,Nokib Sarkar,৬৩০-এর দশক,#nokibBot,3663640
bn.wikipedia.org,2019-09-11 05:04:42,Nokib Sarkar,৬২০-এর দশক,#nokibBot,3663638
bn.wikipedia.org,2019-09-11 05:04:32,Nokib Sarkar,৬১০-এর দশক,#nokibBot,3663636
bn.wikipedia.org,2019-09-11 05:04:23,Nokib Sarkar,৬০০-এর দশক,#nokibBot,3663635
bn.wikipedia.org,2019-09-11 05:04:13,Nokib Sarkar,৫৯০-এর দশক,#nokibBot,3663633
bn.wikipedia.org,2019-09-11 05:04:03,Nokib Sarkar,৫৮০-এর দশক,#nokibBot,3663632
bn.wikipedia.org,2019-09-11 05:03:52,Nokib Sarkar,৫৭০-এর দশক,#nokibBot,3663631
bn.wikipedia.org,2019-09-11 05:03:42,Nokib Sarkar,৫৬০-এর দশক,#nokibBot,3663630
bn.wikipedia.org,2019-09-11 05:03:32,Nokib Sarkar,৫৫০-এর দশক,#nokibBot,3663629
bn.wikipedia.org,2019-09-11 05:03:22,Nokib Sarkar,৫৪০-এর দশক,#nokibBot,3663628
bn.wikipedia.org,2019-09-11 05:03:12,Nokib Sarkar,৫৩০-এর দশক,#nokibBot,3663627
bn.wikipedia.org,2019-09-11 05:03:02,Nokib Sarkar,৫২০-এর দশক,#nokibBot,3663626
bn.wikipedia.org,2019-09-11 05:02:52,Nokib Sarkar,৫১০-এর দশক,#nokibBot,3663625
bn.wikipedia.org,2019-09-11 05:02:42,Nokib Sarkar,৫০০-এর দশক,#nokibBot,3663624
bn.wikipedia.org,2019-09-11 05:02:32,Nokib Sarkar,৪৯০-এর দশক,#nokibBot,3663622
bn.wikipedia.org,2019-09-11 05:02:22,Nokib Sarkar,৪৮০-এর দশক,#nokibBot,3663621
bn.wikipedia.org,2019-09-11 05:02:12,Nokib Sarkar,৪৭০-এর দশক,#nokibBot,3663619
bn.wikipedia.org,2019-09-11 05:02:02,Nokib Sarkar,৪৬০-এর দশক,#nokibBot,3663618
bn.wikipedia.org,2019-09-11 05:01:52,Nokib Sarkar,৪৫০-এর দশক,#nokibBot,3663617
bn.wikipedia.org,2019-09-11 05:01:42,Nokib Sarkar,৪৪০-এর দশক,#nokibBot,3663616
bn.wikipedia.org,2019-09-11 05:01:32,Nokib Sarkar,৪৩০-এর দশক,#nokibBot,3663615
bn.wikipedia.org,2019-09-11 05:01:22,Nokib Sarkar,৪২০-এর দশক,#nokibBot,3663613
bn.wikipedia.org,2019-09-11 05:01:12,Nokib Sarkar,৪১০-এর দশক,#nokibBot,3663611
bn.wikipedia.org,2019-09-11 05:01:02,Nokib Sarkar,৪০০-এর দশক,#nokibBot,3663609
bn.wikipedia.org,2019-09-11 05:00:52,Nokib Sarkar,৩৯০-এর দশক,#nokibBot,3663607
bn.wikipedia.org,2019-09-11 05:00:42,Nokib Sarkar,৩৮০-এর দশক,#nokibBot,3663606
bn.wikipedia.org,2019-09-11 05:00:32,Nokib Sarkar,৩৭০-এর দশক,#nokibBot,3663605
bn.wikipedia.org,2019-09-11 05:00:22,Nokib Sarkar,৩৬০-এর দশক,#nokibBot,3663604
bn.wikipedia.org,2019-09-11 05:00:12,Nokib Sarkar,৩৫০-এর দশক,#nokibBot,3663603
bn.wikipedia.org,2019-09-11 05:00:02,Nokib Sarkar,৩৪০-এর দশক,#nokibBot,3663602
bn.wikipedia.org,2019-09-11 04:59:52,Nokib Sarkar,৩৩০-এর দশক,#nokibBot,3663601
bn.wikipedia.org,2019-09-11 04:59:42,Nokib Sarkar,৩২০-এর দশক,#nokibBot,3663600
bn.wikipedia.org,2019-09-11 04:59:32,Nokib Sarkar,৩১০-এর দশক,#nokibBot,3663598
bn.wikipedia.org,2019-09-11 04:59:22,Nokib Sarkar,৩০০-এর দশক,#nokibBot,3663597
bn.wikipedia.org,2019-09-11 04:59:12,Nokib Sarkar,২৯০-এর দশক,#nokibBot,3663596
bn.wikipedia.org,2019-09-11 04:59:02,Nokib Sarkar,২৮০-এর দশক,#nokibBot,3663595
bn.wikipedia.org,2019-09-11 04:58:52,Nokib Sarkar,২৭০-এর দশক,#nokibBot,3663594
bn.wikipedia.org,2019-09-11 04:58:42,Nokib Sarkar,২৬০-এর দশক,#nokibBot,3663592
bn.wikipedia.org,2019-09-11 04:58:32,Nokib Sarkar,২৫০-এর দশক,#nokibBot,3663591
bn.wikipedia.org,2019-09-11 04:58:22,Nokib Sarkar,২৪০-এর দশক,#nokibBot,3663590
bn.wikipedia.org,2019-09-11 04:58:12,Nokib Sarkar,২৩০-এর দশক,#nokibBot,3663589
bn.wikipedia.org,2019-09-11 04:58:02,Nokib Sarkar,২২০-এর দশক,#nokibBot,3663588
bn.wikipedia.org,2019-09-11 04:57:52,Nokib Sarkar,২১০-এর দশক,#nokibBot,3663587
bn.wikipedia.org,2019-09-11 04:57:42,Nokib Sarkar,২০০-এর দশক,#nokibBot,3663586
bn.wikipedia.org,2019-09-11 04:57:32,Nokib Sarkar,১৯০-এর দশক,#nokibBot,3663585
bn.wikipedia.org,2019-09-11 04:57:22,Nokib Sarkar,১৮০-এর দশক,#nokibBot,3663584
bn.wikipedia.org,2019-09-11 04:57:12,Nokib Sarkar,১৭০-এর দশক,#nokibBot,3663583
bn.wikipedia.org,2019-09-11 04:57:02,Nokib Sarkar,১৬০-এর দশক,#nokibBot,3663582
bn.wikipedia.org,2019-09-11 04:56:52,Nokib Sarkar,১৫০-এর দশক,#nokibBot,3663581
bn.wikipedia.org,2019-09-11 04:56:42,Nokib Sarkar,১৪০-এর দশক,#nokibBot,3663580
bn.wikipedia.org,2019-09-11 04:56:32,Nokib Sarkar,১৩০-এর দশক,#nokibBot,3663579
bn.wikipedia.org,2019-09-11 04:56:22,Nokib Sarkar,১২০-এর দশক,#nokibBot,3663578
bn.wikipedia.org,2019-09-11 04:56:12,Nokib Sarkar,১১০-এর দশক,#nokibBot,3663577
bn.wikipedia.org,2019-09-11 04:56:02,Nokib Sarkar,১০০-এর দশক,#nokibBot,3663576
bn.wikipedia.org,2019-09-11 04:55:52,Nokib Sarkar,৯০-এর দশক,#nokibBot,3663575
bn.wikipedia.org,2019-09-11 04:55:42,Nokib Sarkar,৮০-এর দশক,#nokibBot,3663574
bn.wikipedia.org,2019-09-11 04:55:32,Nokib Sarkar,৭০-এর দশক,#nokibBot,3663573
bn.wikipedia.org,2019-09-11 04:55:22,Nokib Sarkar,৬০-এর দশক,#nokibBot,3663571
bn.wikipedia.org,2019-09-11 04:55:12,Nokib Sarkar,৫০-এর দশক,#nokibBot,3663570
bn.wikipedia.org,2019-09-11 04:55:02,Nokib Sarkar,৪০-এর দশক,#nokibBot,3663569
bn.wikipedia.org,2019-09-11 04:54:52,Nokib Sarkar,৩০-এর দশক,#nokibBot,3663567
bn.wikipedia.org,2019-09-11 04:54:42,Nokib Sarkar,২০-এর দশক,#nokibBot,3663565
bn.wikipedia.org,2019-09-11 04:54:32,Nokib Sarkar,১০-এর দশক,#nokibBot,3663563
bn.wikipedia.org,2019-09-11 04:53:48,Nokib Sarkar,০-এর দশক,#nokibBot,3663560
bn.wikipedia.org,2019-09-11 04:53:38,Nokib Sarkar,খ্রিস্টপূর্ব ১০-এর দশক,#nokibBot,3663559
bn.wikipedia.org,2019-09-11 04:51:37,Nokib Sarkar,খ্রিস্টপূর্ব ২০-এর দশক,#nokibBot,3663554
bn.wikipedia.org,2019-09-11 04:51:27,Nokib Sarkar,খ্রিস্টপূর্ব ৩০-এর দশক,#nokibBot,3663553
bn.wikipedia.org,2019-09-11 04:51:17,Nokib Sarkar,খ্রিস্টপূর্ব ৪০-এর দশক,#nokibBot,3663552
bn.wikipedia.org,2019-09-11 04:51:07,Nokib Sarkar,খ্রিস্টপূর্ব ৫০-এর দশক,#nokibBot,3663551
bn.wikipedia.org,2019-09-11 04:50:57,Nokib Sarkar,খ্রিস্টপূর্ব ৬০-এর দশক,#nokibBot,3663550
bn.wikipedia.org,2019-09-11 04:50:47,Nokib Sarkar,খ্রিস্টপূর্ব ৭০-এর দশক,#nokibBot,3663549
bn.wikipedia.org,2019-09-11 04:50:37,Nokib Sarkar,খ্রিস্টপূর্ব ৮০-এর দশক,#nokibBot,3663548
bn.wikipedia.org,2019-09-11 04:50:27,Nokib Sarkar,খ্রিস্টপূর্ব ৯০-এর দশক,#nokibBot,3663547
bn.wikipedia.org,2019-09-11 04:50:17,Nokib Sarkar,খ্রিস্টপূর্ব ১০০-এর দশক,#nokibBot,3663546
bn.wikipedia.org,2019-09-11 04:49:29,Nokib Sarkar,খ্রিস্টপূর্ব ১১০-এর দশক,#nokibBot,3663544
bn.wikipedia.org,2019-09-11 04:49:19,Nokib Sarkar,খ্রিস্টপূর্ব ১২০-এর দশক,#nokibBot,3663543
bn.wikipedia.org,2019-09-11 04:49:09,Nokib Sarkar,খ্রিস্টপূর্ব ১৩০-এর দশক,#nokibBot,3663542
bn.wikipedia.org,2019-09-11 04:48:59,Nokib Sarkar,খ্রিস্টপূর্ব ১৪০-এর দশক,#nokibBot,3663541
bn.wikipedia.org,2019-09-11 04:48:49,Nokib Sarkar,খ্রিস্টপূর্ব ১৫০-এর দশক,#nokibBot,3663540
bn.wikipedia.org,2019-09-11 04:48:39,Nokib Sarkar,খ্রিস্টপূর্ব ১৬০-এর দশক,#nokibBot,3663539
bn.wikipedia.org,2019-09-11 04:48:29,Nokib Sarkar,খ্রিস্টপূর্ব ১৭০-এর দশক,#nokibBot,3663538
bn.wikipedia.org,2019-09-11 04:48:19,Nokib Sarkar,খ্রিস্টপূর্ব ১৮০-এর দশক,#nokibBot,3663537
bn.wikipedia.org,2019-09-11 04:48:09,Nokib Sarkar,খ্রিস্টপূর্ব ১৯০-এর দশক,#nokibBot,3663536
bn.wikipedia.org,2019-09-11 04:46:19,Nokib Sarkar,খ্রিস্টপূর্ব ২০০-এর দশক,#nokibBot,3663531
bn.wikipedia.org,2019-09-11 04:45:28,Nokib Sarkar,খ্রিস্টপূর্ব ২০০-এর দশক,#nokibBot,3663527
